Regional Weather Roundup
Issued by NWS

Home | Current Version | Previous Version | Graphics & Text | Print | Product List | Glossary On
Versions: 1 2 3 4 5 6 7 8 9 10 11 12 13 14 15 16 17 18 19 20 21 22 23 24 25 26 27 28 29 30 31 32 33 34 35 36 37 38 39 40 41 42 43 44 45 46 47 48 49 50
000
ASUS45 KBOU 290207
RWRCO

WEATHER ROUNDUP FOR COLORADO
NATIONAL WEATHER SERVICE DENVER/BOULDER CO
700 PM MST WED JAN 28 2015

NOTE: "FAIR" INDICATES FEW OR NO CLOUDS BELOW 12000 FEET WITH NO
SIGNIFICANT WEATHER AND/OR OBSTRUCTIONS TO VISIBILITY.

COZ001>005-013-030-031-290300-
...NORTHWEST COLORADO...

CITY           SKY/WX    TMP DP  RH WIND       PRES   REMARKS
CRAIG          CLOUDY    35  31  85 CALM      30.29R
HAYDEN         CLOUDY    36  28  75 S5        30.29S
MEEKER         PTCLDY    33  27  78 NE3       30.29R
MOUNT WERNER   NOT AVBL
STEAMBOAT SPGS CLOUDY    35  29  77 CALM      30.30R
WALDEN         CLOUDY    34  28  80 S3        30.29R
$$

COZ006>008-011-290300-
...WEST CENTRAL VALLEYS...

CITY           SKY/WX    TMP DP  RH WIND       PRES   REMARKS
GRAND JUNCTION CLOUDY    43  33  68 CALM      30.25R
MONTROSE       CLOUDY    40  28  62 E6        30.28R
EAGLE          PTCLDY    37  27  65 VRB7      30.29R
RIFLE          CLOUDY    43  30  60 W5        30.26R
DELTA          NOT AVBL
NUCLA          CLEAR     43  25  49 CALM      30.29R
$$

COZ017>023-064>068-290300-
...SOUTHWEST COLORADO...

CITY           SKY/WX    TMP DP  RH WIND       PRES   REMARKS
DURANGO        MOCLDY    40  29  64 SW5       30.24R
CORTEZ         CLEAR     35  25  66 E3        30.26R
PAGOSA SPRINGS MOCLDY    33  26  73 CALM      30.27R
TELLURIDE      MOCLDY    33  25  71 CALM      30.32R
WOLF CREEK PAS NOT AVBL
$$

COZ009-010-012-014-032>034-037-058>063-290300-
...CENTRAL COLORADO...

CITY           SKY/WX    TMP DP  RH WIND       PRES   REMARKS
ASPEN          MOCLDY    33  25  72 CALM      30.28R
BUENA VISTA    PTCLDY    36  18  49 NW16      30.26S
COPPER MTN     CLOUDY    25  19  80 W13       30.35R WCI  13
BERTHOUD PASS  CLOUDY    18  10  73 NW20      30.33R WCI   1
COTTONWOOD PAS PTCLDY    36  18  48 W17G25    30.29S
GUNNISON       PTCLDY    25  18  74 CALM      30.31R
KREMMLING      CLOUDY    36  28  75 CALM      30.31R
LEADVILLE      PTCLDY    23  12  62 CALM      30.31R
MONARCH PASS   CLEAR     21  18  86 MISG      30.43S
SALIDA         PTCLDY    38  20  48 W7        30.33R
SUNLIGHT       MOCLDY    28  23  80 W3          N/A
WILKERSON PASS PTCLDY    25  12  58 N10G16    30.35R WCI  15
$$

COZ069>075-290300-
...SAN LUIS VALLEY/SANGRE DE CRISTO MOUNTAINS...

CITY           SKY/WX    TMP DP  RH WIND       PRES   REMARKS
ALAMOSA        PTCLDY    34  20  56 N8        30.24R WCI  27
LA VETA PASS   NOT AVBL
SAGUACHE       PTCLDY    32  23  69 N9        30.28R WCI  24
$$

COZ035-036-038>040-290300-
...NORTHERN COLORADO FRONT RANGE...

CITY           SKY/WX    TMP DP  RH WIND       PRES   REMARKS
DENVER INTL AP PTCLDY    40  32  73 NE14      30.20R
DMNS CITY PARK   N/A     47  22  36 E9        30.20R
AURORA         PTCLDY    42  25  50 E9        30.21R
FRONT RANGE AP NOT AVBL
ERIE MUNI ARPT PTCLDY    45  19  35 NE8       30.18R
BOULDER MUN AP CLEAR     50  19  29 W6        30.18R
CENTENNIAL     PTCLDY    45  23  42 NE8       30.20R
BROOMFIELD     PTCLDY    48  19  32 NW6       30.18R
FORT COLLINS   PTCLDY    50  25  37 NW15G22   30.20R
LONGMONT       PTCLDY    49  21  33 NE6       30.20R
$$

COZ041-046-047-076>085-087-088-290300-
...PIKES PEAK/PALMER DIVIDE AND SOUTHERN FOOTHILLS...

CITY           SKY/WX    TMP DP  RH WIND       PRES   REMARKS
COLO. SPRINGS  PTCLDY    42  22  44 N10       30.21R
A. F. ACADEMY  CLEAR     36  20  52 N10       30.22R
ELLICOTT       CLEAR    N/A N/A N/A NE13      30.19R
FALCON         CLEAR     39  22  49 N10       30.23R
FORT CARSON    CLEAR     45  20  37 N10       30.18R
LIMON          CLEAR     40  32  73 N17G24    30.20R
MONUMENT HILL  CLEAR     36  23  60 N6        30.23R
TRINIDAD       CLOUDY    50  26  39 N9        30.17R
$$

COZ042>045-048>051-090-091-290300-
...NORTHEAST COLORADO...

CITY           SKY/WX    TMP DP  RH WIND       PRES   REMARKS
GREELEY ARPT   PTCLDY    45  30  57 N23       30.16R
AKRON          CLEAR     40  34  79 N20       30.18R
BURLINGTON     CLEAR     45  33  63 NW13      30.15R
WRAY           PTCLDY    46  36  69 NW14G22   30.15R
STERLING       CLEAR     41  37  87 NW9       30.18R
HOLYOKE        CLEAR     46  36  66 NW13G20   30.14R
FORT MORGAN    CLOUDY    42  33  72 N15       30.20R
$$

COZ086-089-092>099-290300-
...SOUTHEAST COLORADO...

CITY           SKY/WX    TMP DP  RH WIND       PRES   REMARKS
PUEBLO         CLEAR     50  22  33 N12       30.16R
LA JUNTA       MOCLDY    50  28  42 MISG      30.14R
LAMAR          MOCLDY    52  33  48 NE7       30.12R
SPRINGFIELD      N/A     43  25  49 NW5       30.12R
$$


USA.gov is the U.S. government's official web portal to all federal, state and local government web resources and services.